カタログに戻る

STARLINK-6349

運用中通信VLEO
NORAD 57241·PAYLOAD·🇺🇸 United States

打ち上げ Jul 7, 2023 から Vandenberg Space Force Base

Loading…

次のパス (今後24時間)

TLE

最新Source: CelesTrak SupGP

元期: Sep 14, 2026, 21:03 UTC

1 57241C 23094Z   26257.87756944  .00043126  00000+0  15620-2 0  2577
2 57241  43.0043  31.5842 0001446 275.9101  40.3949 15.27557410    15

AllMySatでSTARLINK-6349をリアルタイム追跡

Download on the App Store